Lid_Strength_Index
8 11 13 13 12 13 13 16 17 14 12 12 12 12 13 12 12 11 10 9 6 6 4 3 3 4 2 2 2 1 1 1 1 1 1 2 2 3 3 2 2 1 0 1
11 13 10 10 11 13 14 16 17 14 12 13 13 13 12 13 13 12 11 10 7 6 5 4 5 6 6 2 2 2 1 1 1 1 1 1 1 2 2 3 1 0 1 1
13 11 9 11 12 13 14 15 16 15 13 12 13 14 13 12 12 12 11 10 10 6 6 6 7 8 8 7 4 2 1 1 1 1 1 1 1 2 3 3 2 1 1 1
11 10 11 12 12 12 15 12 13 13 14 18 13 19 14 13 13 12 12 10 10 6 6 7 8 9 9 10 8 7 2 1 1 1 1 2 2 3 2 2 1 1 1 1
13 12 12 13 12 11 13 11 12 12 14 15 16 17 16 12 14 13 11 10 6 7 8 9 9 9 10 11 9 8 6 5 5 1 1 1 2 2 1 1 1 1 1 1
11 9 10 11 10 10 10 11 12 12 14 19 17 17 18 14 14 13 11 8 9 9 10 9 10 10 10 10 10 9 8 8 8 6 4 3 2 2 2 2 2 1 2 1
14 14 9 10 13 11 12 16 20 21 20 22 19 18 16 12 10 11 9 10 10 10 10 11 11 11 11 11 11 10 10 11 10 9 8 8 7 2 2 2 2 2 2 1
19 20 12 10 12 14 14 16 21 26 23 21 16 19 15 11 10 8 9 11 11 11 11 11 12 12 12 12 12 12 11 12 11 11 11 10 10 8 4 4 2 3 4 5
17 18 11 11 10 11 14 17 13 17 16 19 17 15 12 11 12 11 11 12 12 12 12 12 12 12 13 13 13 12 12 12 12 11 12 12 11 11 11 9 9 9 9 8
15 18 13 11 11 11 13 11 17 17 22 23 19 18 18 15 14 14 14 14 14 13 14 13 13 12 13 13 13 13 13 13 13 12 12 12 12 12 12 12 12 11 11 10
13 14 15 12 14 14 13 15 14 15 16 21 21 19 15 15 14 14 14 14 14 14 13 14 13 12 13 13 13 13 13 13 13 13 13 12 12 12 12 13 13 13 12 12
13 14 17 16 11 12 12 14 14 18 19 17 19 20 15 13 13 14 14 14 14 14 14 13 13 13 14 14 14 14 14 14 13 13 13 13 13 13 14 14 14 13 14 13
13 15 20 18 16 14 16 14 14 13 15 19 21 20 14 15 15 14 14 14 14 14 14 14 14 15 15 15 14 14 14 14 14 14 14 14 14 14 14 14 14 14 14 14
10 15 20 20 18 16 18 16 15 15 19 19 19 19 17 17 17 15 15 15 14 14 15 15 15 15 15 15 15 15 15 14 14 15 15 15 15 15 15 15 15 15 15 15
14 17 16 16 15 15 17 17 16 17 18 20 19 20 18 17 16 16 15 15 15 16 16 16 15 16 16 16 15 16 16 16 15 16 16 16 16 15 15 16 16 16 15 15
14 17 16 17 16 15 17 17 16 16 16 16 17 18 15 15 15 16 15 15 16 16 16 16 16 16 16 16 16 16 16 16 16 16 17 17 16 16 17 17 16 16 16 16
17 20 21 23 19 17 19 18 18 16 15 16 19 17 15 17 17 17 16 16 16 16 17 17 17 17 17 17 17 17 17 16 17 17 17 17 17 17 18 17 17 17 17 17
21 23 25 25 22 23 15 15 16 16 17 15 15 15 15 16 16 16 16 16 16 16 16 16 17 17 17 16 17 16 16 16 16 17 17 17 17 17 17 17 18 18 18 18
17 22 25 22 31 18 16 16 17 18 17 15 15 14 14 14 14 15 15 16 16 16 16 17 16 16 17 17 16 16 17 17 17 17 17 17 17 17 17 18 18 18 18 18
18 20 22 30 28 26 16 17 17 16 18 16 15 14 15 14 16 16 16 16 16 16 16 16 16 16 16 17 16 16 17 17 18 18 18 17 17 18 18 18 18 18 18 18
27 28 28 30 29 23 18 17 17 21 17 16 14 15 15 15 16 15 15 15 15 16 16 16 16 17 17 16 16 17 17 18 18 18 18 18 18 18 18 18 18 18 18 18
25 28 30 33 28 25 18 17 19 17 15 15 15 15 15 15 15 16 16 16 16 16 16 15 16 16 17 16 16 17 18 17 18 18 18 18 18 17 17 18 18 18 18 18
22 21 24 21 20 18 17 17 15 15 15 15 14 15 15 15 18 18 18 19 19 19 18 19 18 18 19 18 17 17 19 19 19 19 20 20 19 18 18 17 18 18 18 18
21 21 21 21 19 19 17 16 15 15 15 15 14 15 15 16 18 18 19 19 20 21 21 23 21 19 19 20 19 21 20 21 21 21 21 21 20 20 19 18 18 18 18 19
20 20 22 21 19 20 19 19 17 17 18 17 19 18 18 16 17 17 18 19 20 21 22 24 23 22 22 23 22 24 22 21 20 20 21 20 19 20 20 19 18 18 18 17
20 19 19 19 16 17 17 20 21 19 19 21 18 18 19 18 16 18 19 21 21 21 21 21 22 22 22 22 21 21 21 20 20 20 20 20 19 20 19 19 18 15 13 13